Powrót do katalogu

ORBCOMM FM 5 DEB

AktywnyLEO
NORAD 51450·DEBRIS·🇺🇸 United States

Wystrzelony Dec 23, 1997 z Cape Canaveral Space Force Station

Loading…

Następne Przeloty (najbliższe 24 godziny)

TLE

ŚwieżeSource: Space-Track

Epoka: Sep 13, 2026, 09:49 UTC

1 51450U 97084Z   26256.40964462  .00004822  00000-0  99463-3 0  9999
2 51450  45.0071 302.1149 0021884 259.1442 100.6952 14.61309656120933

Śledź ORBCOMM FM 5 DEB w czasie rzeczywistym z AllMySat

Download on the App Store